PLATFORM,ARGOS_ID,DATE (YYYY/MM/DD HH:MI:SS),LATITUDE (degree_north),LONGITUDE (degree_east),DEPH LEVEL1(meter),TEMP LEVEL1(degree_Celsius),DEPH LEVEL2(meter),NSCT LEVEL2(meter/second),EWCT LEVEL2(meter/second),QC,SC40_GNRL_BattVolt,SC40_GNRL_Submergence,SVP_RCBN_Number,SVP_GNRL_ImmPercent,SVP_GNRL_BattVolt
62782,30599,2005/09/13 15:13:00,43.1950,-9.3490,0.5,-5,50,,,0014474799,0.47,128,,,
62782,30599,2005/09/13 16:00:00,43.1560,-9.3900,0.5,22.266,50,-2.10354,-1.61847,0014474700,10.59,96,,,
62782,30599,2005/09/13 17:00:00,43.1120,-9.4040,0.5,18.75,50,-1.85775,-0.432909,0014474700,10.59,56,,,
62782,30599,2005/09/13 18:00:00,43.1070,-9.3990,0.5,17.539,50,-0.154437,0.112747,0011171700,10.59,16,,,
62782,30599,2005/09/13 19:00:00,43.1050,-9.3980,0.5,17.07,50,-0.0844043,0.0309221,0011171700,10.71,0,,,
62782,30599,2005/09/13 20:01:00,43.1010,-9.3990,0.5,16.836,50,-0.166033,-0.0304152,0011171700,10.59,0,,,
62782,30599,2005/09/13 21:00:00,43.0990,-9.3990,0.5,16.836,50,-0.0858264,0,0011171700,10.71,0,,,
62782,30599,2005/09/13 22:00:00,43.0970,-9.4020,0.5,16.836,50,-0.0843932,-0.0927662,0011171700,10.71,0,,,
62782,30599,2005/09/13 23:00:00,43.0970,-9.4050,0.5,16.758,50,0,-0.0927662,0011171700,10.71,0,,,
62782,30599,2005/09/14 00:00:00,43.0970,-9.4100,0.5,16.758,50,0,-0.11277,0011171700,10.71,0,,,
62782,30599,2005/09/14 01:00:00,43.0980,-9.4150,0.5,16.641,50,0.0421962,-0.15461,0011171700,10.71,0,,,
62782,30599,2005/09/14 02:00:00,43.1000,-9.4190,0.5,16.484,50,0.0843946,-0.123688,0011171700,10.71,0,,,
62782,30599,2005/09/14 03:00:00,43.1020,-9.4220,0.5,16.406,50,0.0843973,-0.0927662,0011171700,10.59,0,,,
62782,30599,2005/09/14 04:00:00,43.1050,-9.4220,0.5,16.289,50,0.126601,-7.69001e-13,0011171700,10.71,0,,,
62782,30599,2005/09/14 05:00:00,43.1080,-9.4200,0.5,16.328,50,0.126607,0.0618442,0011171700,10.59,0,,,
62782,30599,2005/09/14 06:00:00,43.1090,-9.4160,0.5,16.25,50,0.0422039,0.123688,0011171700,10.71,0,,,
62782,30599,2005/09/14 07:00:00,43.1080,-9.4130,0.5,16.289,50,-0.0422039,0.0927662,0011171700,10.71,0,,,
62782,30599,2005/09/14 08:00:00,43.1070,-9.4120,0.5,16.484,50,-0.0422032,0.0309221,0011171700,10.71,0,,,
62782,30599,2005/09/14 09:00:00,43.1070,-9.4100,0.5,16.523,50,0,0.0618442,0011171700,10.59,0,,,
62782,30599,2005/09/14 10:00:00,43.1070,-9.4080,0.5,16.68,50,0,0.0618442,0011171700,10.71,0,,,
62782,30599,2005/09/14 11:00:00,43.1090,-9.4080,0.5,16.836,50,0.0844071,-4.39429e-13,0011171700,10.71,0,,,
62782,30599,2005/09/14 12:00:00,43.1120,-9.4080,0.5,16.953,50,0.126616,-4.39429e-13,0011171700,10.59,0,,,
62782,30599,2005/09/14 13:00:00,43.1150,-9.4090,0.5,17.188,50,0.126622,-0.0309221,0011171700,10.71,1,,,
62782,30599,2005/09/14 14:00:00,43.1180,-9.4090,0.5,17.266,50,0.126628,2.74643e-13,0011171700,10.71,0,,,
62782,30599,2005/09/14 15:01:00,43.1190,-9.4060,0.5,17.344,50,0.0415188,0.0912455,0011171700,10.59,1,,,
62782,30599,2005/09/14 16:00:00,43.1180,-9.4020,0.5,17.344,50,-0.0429263,0.125785,0011171700,10.71,0,,,
62782,30599,2005/09/14 17:00:00,43.1160,-9.3960,0.5,17.305,50,-0.0844196,0.185532,0011171700,10.59,0,,,
62782,30599,2005/09/14 18:00:00,43.1100,-9.3920,0.5,17.109,50,-0.253242,0.123688,0011171700,10.59,0,,,
62782,30599,2005/09/14 19:00:00,43.1030,-9.3890,0.5,16.797,50,-0.295417,0.0927662,0011171700,10.71,0,,,
62782,30599,2005/09/14 20:00:00,43.0980,-9.3890,0.5,16.602,50,-0.210992,-2.74643e-13,0011171700,10.71,0,,,
62782,30599,2005/09/14 21:01:00,43.0920,-9.3910,0.5,16.562,50,-0.249017,-0.0608303,0011171700,10.59,1,,,
62782,30599,2005/09/14 22:00:00,43.0900,-9.3930,0.5,16.562,50,-0.0858137,-0.0628924,0011171700,10.59,1,,,
62782,30599,2005/09/14 23:00:00,43.0910,-9.3930,0.5,16.641,50,0.0421914,8.78858e-13,0011171700,10.71,1,,,
62782,30599,2005/09/15 00:00:00,43.0920,-9.3940,0.5,16.641,50,0.0421921,-0.0309221,0011171700,10.71,0,,,
62782,30599,2005/09/15 01:00:00,43.0940,-9.3950,0.5,16.68,50,0.0843862,-0.0309221,0011171700,10.59,0,,,
62782,30599,2005/09/15 02:00:00,43.0950,-9.3960,0.5,16.602,50,0.0421942,-0.0309221,0011171700,10.71,0,,,
62782,30599,2005/09/15 03:00:00,43.0960,-9.3970,0.5,16.562,50,0.0421949,-0.0309221,0011171700,10.71,0,,,
62782,30599,2005/09/15 04:00:00,43.0960,-9.3950,0.5,16.445,50,0,0.0618442,0011171700,10.71,0,,,
62782,30599,2005/09/15 05:00:00,43.0950,-9.3880,0.5,16.406,50,-0.0421949,0.216455,0011171700,10.71,0,,,
62782,30599,2005/09/15 06:00:00,43.0920,-9.3790,0.5,16.445,50,-0.12658,0.278299,0011171700,10.71,0,,,
62782,30599,2005/09/15 07:00:00,43.0840,-9.3720,0.5,16.602,50,-0.337517,0.216455,0011171700,10.71,0,,,
62782,30599,2005/09/15 08:00:00,43.0770,-9.3690,0.5,16.719,50,-0.295291,0.0927662,0011171700,10.71,0,,,
62782,30599,2005/09/15 09:00:00,43.0710,-9.3670,0.5,16.836,50,-0.25308,0.0618442,0011171700,10.71,0,,,
62782,30599,2005/09/15 10:01:00,43.0670,-9.3660,0.5,16.992,50,-0.16594,0.0304152,0011171700,10.53,0,,,
62782,30599,2005/09/15 11:00:00,43.0660,-9.3660,0.5,17.227,50,-0.0428896,4.46877e-13,0011171700,10.71,0,,,
62782,30599,2005/09/15 12:00:00,43.0660,-9.3670,0.5,17.5,50,0,-0.0309221,0011171700,10.71,0,,,
62782,30599,2005/09/15 13:00:00,43.0670,-9.3680,0.5,17.539,50,0.0421747,-0.0309221,0011171700,10.71,0,,,
62782,30599,2005/09/15 14:00:00,43.0710,-9.3710,0.5,17.695,50,0.168706,-0.0927662,0011171700,10.71,0,,,
62782,30599,2005/09/15 15:00:00,43.0750,-9.3740,0.5,17.656,50,0.168717,-0.0927662,0011171700,10.71,5,,,
62782,30599,2005/09/15 16:00:00,43.0780,-9.3760,0.5,17.578,50,0.126545,-0.0618442,0011171700,10.59,14,,,
62782,30599,2005/09/15 17:00:00,43.0800,-9.3770,0.5,17.422,50,0.0843668,-0.0309221,0011171700,10.71,18,,,
62782,30599,2005/09/15 18:00:00,43.0790,-9.3720,0.5,17.188,50,-0.0421838,0.15461,0011171700,10.71,1,,,
62782,30599,2005/09/15 19:00:00,43.0750,-9.3650,0.5,16.914,50,-0.168728,0.216455,0011171700,10.71,0,,,
62782,30599,2005/09/15 20:00:00,43.0690,-9.3600,0.5,16.758,50,-0.253071,0.15461,0011171700,10.71,0,,,
62782,30599,2005/09/15 21:00:00,43.0610,-9.3570,0.5,16.562,50,-0.33739,0.0927662,0011171700,10.71,0,,,
62782,30599,2005/09/15 22:00:00,43.0570,-9.3560,0.5,16.211,50,-0.168678,0.0309221,0011171700,10.71,0,,,
62782,30599,2005/09/15 23:00:00,43.0540,-9.3570,0.5,16.055,50,-0.126501,-0.0309221,0011171700,10.71,1,,,
62782,30599,2005/09/16 00:00:00,43.0540,-9.3580,0.5,15.898,50,0,-0.0309221,0011171700,10.53,0,,,
62782,30599,2005/09/16 01:00:00,43.0550,-9.3590,0.5,15.742,50,0.0421664,-0.0309221,0011171700,10.71,0,,,
62782,30599,2005/09/16 02:00:00,43.0560,-9.3610,0.5,15.898,50,0.0421671,-0.0618442,0011171700,10.71,0,,,
62782,30599,2005/09/16 03:00:00,43.0560,-9.3630,0.5,16.133,50,0,-0.0618442,0011171700,10.71,0,,,
62782,30599,2005/09/16 04:00:00,43.0570,-9.3680,0.5,16.055,50,0.0421678,-0.15461,0011171700,10.71,0,,,
62782,30599,2005/09/16 05:00:00,43.0600,-9.3740,0.5,16.211,50,0.126508,-0.185532,0011171700,10.59,0,,,
62782,30599,2005/09/16 06:00:00,43.0590,-9.3720,0.5,16.211,50,-0.0421699,0.0618442,0011171700,10.71,0,,,
62782,30599,2005/09/16 07:00:00,43.0570,-9.3690,0.5,16.094,50,-0.0843377,0.0927662,0011171700,10.71,6,,,
62782,30599,2005/09/16 08:00:00,43.0530,-9.3670,0.5,16.484,50,-0.168667,0.0618442,0011171700,10.71,0,,,
62782,30599,2005/09/16 09:00:00,43.0510,-9.3640,0.5,16.641,50,-0.0843294,0.0927662,0011171700,10.59,0,,,
62782,30599,2005/09/16 10:00:00,42.4820,-9.4490,0.5,15.234,50,-23.8803,-2.62838,0014471700,10.76,255,,,
62782,30599,2005/09/16 11:00:00,43.0410,-9.3540,0.5,16.953,50,23.4587,2.9376,0014471700,10.71,0,,,
62782,30599,2005/09/16 12:00:00,43.0410,-9.3550,0.5,16.875,50,0,-0.0309221,0011171700,10.71,0,,,
62782,30599,2005/09/16 13:00:00,43.0440,-9.3590,0.5,16.992,50,0.126474,-0.123688,0011171700,10.71,0,,,
62782,30599,2005/09/16 14:00:00,43.0480,-9.3610,0.5,17.109,50,0.168642,-0.0618442,0011171700,10.59,0,,,
62782,30599,2005/09/16 15:00:00,43.0510,-9.3640,0.5,16.641,50,0.126489,-0.0927662,0011171700,10.59,3,,,
62782,30599,2005/09/16 16:01:00,43.0530,-9.3700,0.5,16.055,50,0.082947,-0.182491,0011171700,10.59,34,,,
62782,30599,2005/09/16 17:01:00,43.0490,-9.3740,0.5,15.781,50,-0.168656,-0.123688,0011171700,10.71,64,,,
62782,30599,2005/09/16 18:00:00,43.0430,-9.3790,0.5,15.781,50,-0.257251,-0.157231,0011171700,10.59,104,,,
62782,30599,2005/09/16 19:00:00,43.0340,-9.3840,0.5,15.703,50,-0.379398,-0.15461,0011171700,10.71,144,,,
62782,30599,2005/09/16 20:01:00,43.0230,-9.3890,0.5,15.586,50,-0.456032,-0.152076,0011171700,10.59,185,,,
62782,30599,2005/09/16 21:00:00,43.0130,-9.3920,0.5,15.586,50,-0.428554,-0.0943386,0011171700,10.71,225,,,
62782,30599,2005/09/16 22:01:00,43.0010,-9.3890,0.5,15.625,50,-0.497314,0.0912455,0011171700,10.71,255,,,
62782,30599,2005/09/16 23:00:00,42.9950,-9.3940,0.5,15.391,50,-0.257048,-0.157231,0011171700,10.71,255,,,
62782,30599,2005/09/17 00:01:00,42.9930,-9.4020,0.5,15.312,50,-0.060762,-0.177772,0011171700,10.71,255,,,
62782,30599,2005/09/17 01:00:00,42.9930,-9.4090,0.5,15.273,50,0,-0.220123,0011171700,10.71,255,,,
62782,30599,2005/09/17 02:00:00,42.9940,-9.4170,0.5,15.234,50,0.0421243,-0.247377,0011171700,10.71,255,,,
62782,30599,2005/09/17 03:00:00,42.9960,-9.4220,0.5,15.234,50,0.0842506,-0.15461,0011171700,10.71,255,,,
62782,30599,2005/09/17 04:00:00,42.9950,-9.4230,0.5,15.234,50,-0.0421256,-0.0309221,0011171700,10.71,255,,,
62782,30599,2005/09/17 05:00:00,42.9910,-9.4250,0.5,15.156,50,-0.168496,-0.0618442,0011171700,10.71,255,,,
62782,30599,2005/09/17 06:00:00,42.9820,-9.4300,0.5,15.234,50,-0.379075,-0.15461,0011171700,10.59,255,,,
62782,30599,2005/09/17 07:00:00,42.9700,-9.4380,0.5,15.547,50,-0.505346,-0.247377,0011171700,10.71,255,,,
62782,30599,2005/09/17 08:00:00,42.9570,-9.4460,0.5,15.703,50,-0.547346,-0.247377,0011171700,10.71,255,,,
62782,30599,2005/09/17 09:00:00,42.9470,-9.4540,0.5,15.703,50,-0.420956,-0.247377,0011171700,10.71,255,,,
62782,30599,2005/09/17 10:00:00,42.9380,-9.4620,0.5,15.781,50,-0.378802,-0.247377,0011171700,10.59,255,,,
62782,30599,2005/09/17 11:00:00,42.9290,-9.4690,0.5,15.781,50,-0.378746,-0.216455,0011171700,10.71,255,,,
62782,30599,2005/09/17 12:00:00,42.9230,-9.4740,0.5,15.781,50,-0.252466,-0.15461,0011171700,10.71,255,,,
62782,30599,2005/09/17 13:00:00,42.9150,-9.4780,0.5,16.094,50,-0.336583,-0.123688,0011171700,10.71,255,,,
62782,30599,2005/09/17 14:01:00,42.9050,-9.4840,0.5,16.289,50,-0.413771,-0.182491,0011171700,10.59,255,,,
62782,30599,2005/09/17 15:00:00,42.8950,-9.4930,0.5,16.25,50,-0.427727,-0.283016,0011171700,10.71,255,,,
62782,30599,2005/09/17 16:00:00,42.8850,-9.5040,0.5,16.289,50,-0.42053,-0.340143,0011171700,10.71,255,,,
62782,30599,2005/09/17 17:01:00,42.8760,-9.5180,0.5,16.211,50,-0.372215,-0.425812,0011171700,10.53,255,,,
62782,30599,2005/09/17 18:01:00,42.8650,-9.5330,0.5,15.938,50,-0.462436,-0.463831,0011171700,10.71,255,,,
62782,30599,2005/09/17 19:00:00,42.8550,-9.5480,0.5,15.781,50,-0.427448,-0.471693,0011171700,10.59,255,,,
62782,30599,2005/09/17 20:00:00,42.8470,-9.5620,0.5,15.625,50,-0.33621,-0.432909,0011171700,10.53,255,,,
62782,30599,2005/09/17 21:00:00,42.8370,-9.5730,0.5,15.547,50,-0.420201,-0.340143,0011171700,10.71,255,,,
62782,30599,2005/09/17 22:01:00,42.8270,-9.5830,0.5,15.625,50,-0.413245,-0.304152,0011171700,10.59,255,,,
62782,30599,2005/09/17 23:00:00,42.8200,-9.5920,0.5,15.547,50,-0.299036,-0.283016,0011171700,10.71,255,,,
62782,30599,2005/09/18 00:00:00,42.8150,-9.6030,0.5,15.508,50,-0.210016,-0.340143,0011171700,10.53,255,,,
62782,30599,2005/09/18 01:00:00,42.8150,-9.6080,0.5,15.82,50,0,-0.15461,0011171700,10.71,255,,,
62782,30599,2005/09/18 02:01:00,42.8170,-9.6110,0.5,15.898,50,0.0826274,-0.0912455,0011171700,10.59,255,,,
62782,30599,2005/09/18 03:00:00,42.8180,-9.6140,0.5,16.055,50,0.0427152,-0.0943386,0011171700,10.71,255,,,
62782,30599,2005/09/18 04:00:00,42.8160,-9.6110,0.5,16.211,50,-0.0840059,0.0927662,0011171700,10.71,255,,,
62782,30599,2005/09/18 05:00:00,42.8120,-9.6020,0.5,16.406,50,-0.168004,0.278299,0011171700,10.71,255,,,
62782,30599,2005/09/18 06:00:00,42.8070,-9.6010,0.5,15.977,50,-0.209989,0.0309221,0011171700,10.71,255,,,
62782,30599,2005/09/18 07:00:00,42.8030,-9.6010,0.5,16.094,50,-0.167979,5.49286e-14,0011171700,10.71,255,,,
62782,30599,2005/09/18 08:00:00,42.7960,-9.6010,0.5,16.055,50,-0.293937,5.49286e-14,0011171700,10.71,255,,,
62782,30599,2005/09/18 09:00:00,42.7860,-9.6060,0.5,16.211,50,-0.419852,-0.15461,0011171700,10.71,255,,,
62782,30599,2005/09/18 10:00:00,42.7790,-9.6130,0.5,16.25,50,-0.293856,-0.216455,0011171700,10.71,255,,,
62782,30599,2005/09/18 11:00:00,42.7750,-9.6200,0.5,16.289,50,-0.167902,-0.216455,0011171700,10.71,255,,,
62782,30599,2005/09/18 12:00:00,42.7740,-9.6280,0.5,16.406,50,-0.0419739,-0.247377,0011171700,10.71,255,,,
62782,30599,2005/09/18 13:00:00,42.7780,-9.6370,0.5,16.484,50,0.1679,-0.278299,0011171700,10.71,255,,,
62782,30599,2005/09/18 14:00:00,42.7820,-9.6500,0.5,16.484,50,0.167911,-0.401987,0011171700,10.71,255,,,
62782,30599,2005/09/18 15:00:00,42.7840,-9.6630,0.5,16.523,50,0.0839594,-0.401987,0011171700,10.71,255,,,
62782,30599,2005/09/18 16:00:00,42.7860,-9.6730,0.5,16.445,50,0.0839622,-0.309221,0011171700,10.71,255,,,
62782,30599,2005/09/18 17:00:00,42.7850,-9.6810,0.5,17.031,50,-0.0419814,-0.247377,0011171700,10.71,255,,,
62782,30599,2005/09/18 18:00:00,42.7750,-9.6830,0.5,17.5,50,-0.419777,-0.0618442,0011171700,10.71,255,,,
62782,30599,2005/09/18 19:00:00,42.7590,-9.6760,0.5,17.344,50,-0.671501,0.216455,0011171700,10.59,255,,,
62782,30599,2005/09/18 20:01:00,42.7450,-9.6720,0.5,16.953,50,-0.57779,0.121661,0011171700,10.59,255,,,
62782,30599,2005/09/18 21:00:00,42.7350,-9.6710,0.5,16.602,50,-0.426614,0.0314462,0011171700,10.71,255,,,
62782,30599,2005/09/18 22:00:00,42.7300,-9.6710,0.5,16.484,50,-0.209726,2.74643e-13,0011171700,10.71,255,,,
62782,30599,2005/09/18 23:00:00,42.7270,-9.6700,0.5,16.836,50,-0.125828,0.0309221,0011171700,10.53,255,,,
62782,30599,2005/09/19 00:01:00,42.7270,-9.6710,0.5,17.148,50,-1.2723e-12,-0.0304152,0011171700,10.53,255,,,
62782,30599,2005/09/19 01:00:00,42.7290,-9.6710,0.5,17.148,50,0.0853062,2.79298e-13,0011171700,10.59,255,,,
62782,30599,2005/09/19 02:00:00,42.7330,-9.6710,0.5,16.797,50,0.167777,2.74643e-13,0011171700,10.59,255,,,
62782,30599,2005/09/19 03:00:00,42.7360,-9.6720,0.5,16.484,50,0.12584,-0.0309221,0011171700,10.71,255,,,
62782,30599,2005/09/19 04:01:00,42.7390,-9.6750,0.5,16.289,50,0.123783,-0.0912455,0011171700,10.53,252,,,
62782,30599,2005/09/19 05:00:00,42.7410,-9.6760,0.5,16.094,50,0.0853228,-0.0314462,0011171700,10.71,242,,,
62782,30599,2005/09/19 06:00:00,42.7440,-9.6730,0.5,16.289,50,0.125856,0.0927662,0011171700,10.59,244,,,
62782,30599,2005/09/19 07:00:00,42.7470,-9.6620,0.5,16.289,50,0.125862,0.340143,0011171700,10.59,224,,,
62782,30599,2005/09/19 08:00:00,42.7430,-9.6600,0.5,16.797,50,-0.167815,0.0618442,0011171700,10.53,183,,,
62782,30599,2005/09/19 09:00:00,42.7370,-9.6680,0.5,17.383,50,-0.251702,-0.247377,0011171700,10.59,143,,,
62782,30599,2005/09/19 10:00:00,42.7340,-9.6760,0.5,17.539,50,-0.125842,-0.247377,0011171700,10.71,103,,,
62782,30599,2005/09/19 11:00:00,42.7320,-9.6840,0.5,17.695,50,-0.0838912,-0.247377,0011171700,10.71,63,,,
62782,30599,2005/09/19 12:00:00,42.7330,-9.6940,0.5,17.578,50,0.0419453,-0.309221,0011171700,10.71,25,,,
62782,30599,2005/09/19 13:00:00,42.7340,-9.7070,0.5,17.891,50,0.0419459,-0.401987,0011171700,10.71,0,,,
62782,30599,2005/09/19 14:00:00,42.7380,-9.7190,0.5,17.617,50,0.167791,-0.371065,0011171700,10.71,0,,,
62782,30599,2005/09/19 15:00:00,42.7420,-9.7320,0.5,17.539,50,0.167802,-0.401987,0011171700,10.59,7,,,
62782,30599,2005/09/19 16:00:00,42.7450,-9.7410,0.5,17.422,50,0.125858,-0.278299,0011171700,10.71,19,,,
62782,30599,2005/09/19 17:00:00,42.7470,-9.7430,0.5,17.305,50,0.0839089,-0.0618442,0011171700,10.59,32,,,
62782,30599,2005/09/19 18:01:00,42.7420,-9.7480,0.5,17.266,50,-0.206328,-0.152076,0011171700,10.59,2,,,
62782,30599,2005/09/19 19:00:00,42.7320,-9.7570,0.5,16.914,50,-0.426593,-0.283016,0011171700,10.71,0,,,
62782,30599,2005/09/19 20:00:00,42.7220,-9.7670,0.5,16.719,50,-0.419415,-0.309221,0011171700,10.59,16,,,
62782,30599,2005/09/19 21:01:00,42.7100,-9.7770,0.5,16.719,50,-0.494959,-0.304152,0011171700,10.71,50,,,
62782,30599,2005/09/19 22:00:00,42.7000,-9.7900,0.5,16.602,50,-0.426372,-0.4088,0011171700,10.71,80,,,
62782,30599,2005/09/19 23:00:00,42.6920,-9.7940,0.5,17.383,50,-0.335363,-0.123688,0011171700,10.71,108,,,
62782,30599,2005/09/20 00:01:00,42.6850,-9.8030,0.5,17.188,50,-0.288597,-0.273736,0011171700,10.59,131,,,
62782,30599,2005/09/20 01:00:00,42.6810,-9.8080,0.5,17.07,50,-0.170488,-0.157231,0011171700,10.71,171,,,
62782,30599,2005/09/20 02:01:00,42.6800,-9.8080,0.5,16.875,50,-0.0412228,2.16113e-13,0011171700,10.53,212,,,
62782,30599,2005/09/20 03:00:00,42.6810,-9.7970,0.5,16.875,50,0.0426202,0.345908,0011171700,10.71,251,,,
62782,30599,2005/09/20 04:00:00,42.6760,-9.7800,0.5,16.953,50,-0.209543,0.525675,0011171700,10.59,255,,,
62782,30599,2005/09/20 05:00:00,42.6690,-9.7690,0.5,16.914,50,-0.293331,0.340143,0011171700,10.71,255,,,
62782,30599,2005/09/20 06:01:00,42.6610,-9.7560,0.5,16.68,50,-0.3297,0.395397,0011171700,10.59,255,,,
62782,30599,2005/09/20 07:00:00,42.6500,-9.7470,0.5,16.758,50,-0.468633,0.283016,0011171700,10.71,255,,,
62782,30599,2005/09/20 08:00:00,42.6370,-9.7450,0.5,16.914,50,-0.544502,0.0618442,0011171700,10.59,255,,,
62782,30599,2005/09/20 09:00:00,42.6260,-9.7460,0.5,17.07,50,-0.460643,-0.0309221,0011171700,10.71,255,,,
62782,30599,2005/09/20 10:00:00,42.6170,-9.7500,0.5,17.5,50,-0.376829,-0.123688,0011171700,10.59,255,,,
62782,30599,2005/09/20 11:00:00,42.6150,-9.7580,0.5,17.539,50,-0.0837323,-0.247377,0011171700,10.71,255,,,
62782,30599,2005/09/20 12:00:00,42.6180,-9.7610,0.5,17.617,50,0.125599,-0.0927662,0011171700,10.59,254,,,
62782,30599,2005/09/20 13:00:00,42.6230,-9.7630,0.5,17.656,50,0.209346,-0.0618442,0011171700,10.71,254,,,
62782,30599,2005/09/20 14:00:00,42.6280,-9.7630,0.5,17.695,50,0.209363,7.14072e-13,0011171700,10.71,253,,,
62782,30599,2005/09/20 15:00:00,42.6340,-9.7610,0.5,17.539,50,0.251258,0.0618442,0011171700,10.59,253,,,
62782,30599,2005/09/20 16:00:00,42.6410,-9.7540,0.5,17.539,50,0.293165,0.216455,0011171700,10.71,255,,,
62782,30599,2005/09/20 17:00:00,42.6460,-9.7400,0.5,17.852,50,0.209424,0.432909,0011171700,10.71,255,,,
62782,30599,2005/09/20 18:01:00,42.6470,-9.7330,0.5,17.695,50,0.0412001,0.212906,0011171700,10.71,255,,,
62782,30599,2005/09/20 19:00:00,42.6420,-9.7260,0.5,17.617,50,-0.212977,0.220123,0011171700,10.71,255,,,
62782,30599,2005/09/20 20:00:00,42.6350,-9.7200,0.5,17.617,50,-0.29317,0.185532,0011171700,10.71,255,,,
62782,30599,2005/09/20 21:00:00,42.6270,-9.7220,0.5,17.656,50,-0.33501,-0.0618442,0011171700,10.71,255,,,
62782,30599,2005/09/20 22:00:00,42.6220,-9.7280,0.5,17.695,50,-0.209359,-0.185532,0011171700,10.71,255,,,
62782,30599,2005/09/20 23:00:00,42.6180,-9.7360,0.5,17.578,50,-0.167475,-0.247377,0011171700,10.71,252,,,
62782,30599,2005/09/21 00:00:00,42.6170,-9.7420,0.5,17.656,50,-0.0418672,-0.185532,0011171700,10.71,246,,,
62782,30599,2005/09/21 01:00:00,42.6170,-9.7470,0.5,17.539,50,0,-0.15461,0011171700,10.71,222,,,
62782,30599,2005/09/21 02:00:00,42.6190,-9.7490,0.5,17.539,50,0.083735,-0.0618442,0011171700,10.71,208,,,
62782,30599,2005/09/21 03:01:00,42.6220,-9.7500,0.5,17.5,50,0.123548,-0.0304152,0011171700,10.59,183,,,
62782,30599,2005/09/21 04:00:00,42.6250,-9.7490,0.5,17.5,50,0.127743,0.0314462,0011171700,10.59,149,,,
62782,30599,2005/09/21 05:00:00,42.6280,-9.7490,0.5,17.344,50,0.12562,-7.14072e-13,0011171700,10.71,157,,,
62782,30599,2005/09/21 06:01:00,42.6330,-9.7450,0.5,17.344,50,0.205947,0.121661,0011171700,10.71,185,,,
62782,30599,2005/09/21 07:00:00,42.6330,-9.7370,0.5,17.461,50,0,0.251569,0011171700,10.59,196,,,
62782,30599,2005/09/21 08:00:00,42.6280,-9.7300,0.5,17.578,50,-0.20938,0.216455,0011171700,10.59,166,,,
62782,30599,2005/09/21 09:00:00,42.6210,-9.7310,0.5,17.891,50,-0.293103,-0.0309221,0011171700,10.59,125,,,
62782,30599,2005/09/21 10:00:00,42.6140,-9.7370,0.5,18.086,50,-0.29307,-0.185532,0011171700,10.71,85,,,
62782,30599,2005/09/21 11:00:00,42.6090,-9.7450,0.5,18.398,50,-0.209315,-0.247377,0011171700,10.71,45,,,
62782,30599,2005/09/21 12:00:00,42.6060,-9.7530,0.5,18.398,50,-0.125581,-0.247377,0011171700,10.59,4,,,
62782,30599,2005/09/21 13:01:00,42.6050,-9.7570,0.5,18.359,50,-0.0411728,-0.121661,0011171700,10.59,0,,,
62782,30599,2005/09/21 14:01:00,42.6100,-9.7580,0.5,18.398,50,0.209302,-0.0309221,0011171700,10.71,0,,,
62782,30599,2005/09/21 15:00:00,42.6130,-9.7560,0.5,18.281,50,0.127718,0.0628924,0011171700,10.71,6,,,
62782,30599,2005/09/21 16:00:00,42.6170,-9.7530,0.5,18.359,50,0.167462,0.0927662,0011171700,10.71,28,,,
62782,30599,2005/09/21 17:01:00,42.6200,-9.7490,0.5,18.047,50,0.123544,0.121661,0011171700,10.59,63,,,
62782,30599,2005/09/21 18:00:00,42.6240,-9.7440,0.5,17.812,50,0.170319,0.157231,0011171700,10.71,103,,,
62782,30599,2005/09/21 19:00:00,42.6240,-9.7380,0.5,17.461,50,0,0.185532,0011171700,10.71,141,,,
62782,30599,2005/09/21 20:01:00,42.6200,-9.7360,0.5,17.344,50,-0.164735,0.0608303,0011171700,10.53,166,,,
62782,30599,2005/09/21 21:00:00,42.6130,-9.7400,0.5,17.266,50,-0.298033,-0.125785,0011171700,10.71,179,,,
62782,30599,2005/09/21 22:00:00,42.6090,-9.7480,0.5,17.227,50,-0.167451,-0.247377,0011171700,10.71,202,,,
62782,30599,2005/09/21 23:00:00,42.6050,-9.7540,0.5,17.227,50,-0.16744,-0.185532,0011171700,10.71,218,,,
62782,30599,2005/09/22 00:00:00,42.6020,-9.7610,0.5,17.305,50,-0.125573,-0.216455,0011171700,10.71,246,,,
62782,30599,2005/09/22 01:00:00,42.6000,-9.7670,0.5,17.188,50,-0.083712,-0.185532,0011171700,10.71,254,,,
62782,30599,2005/09/22 02:00:00,42.6010,-9.7740,0.5,17.148,50,0.0418556,-0.216455,0011171700,10.71,223,,,
62782,30599,2005/09/22 03:00:00,42.6050,-9.7790,0.5,17.188,50,0.167429,-0.15461,0011171700,10.71,230,,,
62782,30599,2005/09/22 04:01:00,42.6090,-9.7820,0.5,17.109,50,0.164695,-0.0912455,0011171700,10.71,239,,,
62782,30599,2005/09/22 05:01:00,42.6150,-9.7820,0.5,16.992,50,0.251181,5.49286e-13,0011171700,10.71,243,,,
62782,30599,2005/09/22 06:00:00,42.6200,-9.7790,0.5,16.875,50,0.212884,0.0943386,0011171700,10.71,237,,,
62782,30599,2005/09/22 07:00:00,42.6260,-9.7730,0.5,17.031,50,0.251225,0.185532,0011171700,10.71,219,,,
62782,30599,2005/09/22 08:01:00,42.6260,-9.7700,0.5,17.227,50,0,0.0912455,0011171700,10.59,190,,,
62782,30599,2005/09/22 09:00:00,42.6190,-9.7700,0.5,17.539,50,-0.298062,5.58596e-13,0011171700,10.71,150,,,
62782,30599,2005/09/22 10:00:00,42.6120,-9.7750,0.5,17.617,50,-0.293061,-0.15461,0011171700,10.71,110,,,
62782,30599,2005/09/22 11:00:00,42.6050,-9.7780,0.5,18.242,50,-0.293027,-0.0927662,0011171700,10.71,70,,,
62782,30599,2005/09/22 12:00:00,42.5990,-9.7850,0.5,19.141,50,-0.25114,-0.216455,0011171700,10.71,29,,,
62782,30599,2005/09/22 13:00:00,42.5960,-9.7940,0.5,19.219,50,-0.125561,-0.278299,0011171700,10.71,0,,,
62782,30599,2005/09/22 14:01:00,42.5950,-9.8050,0.5,19.844,50,-0.0411662,-0.334567,0011171700,10.71,0,,,
62782,30599,2005/09/22 15:01:00,42.5970,-9.8140,0.5,19.883,50,0.0837052,-0.278299,0014471700,10.65,0,,,
62782,30599,2005/09/22 15:49:00,42.5880,-9.8890,0.5,4.883,50,-0.470815,-2.89895,0014474700,10.53,4,,,
62782,30599,2005/09/22 16:00:00,42.6020,-9.8200,0.5,19.336,50,0.212822,-0.188677,0014471700,10.76,0,,,
62782,30599,2005/09/22 17:00:00,42.6040,-9.8220,0.5,19.141,50,0.0837147,-0.0618442,0011171700,10.71,0,,,
62782,30599,2005/09/22 18:01:00,42.6120,-9.8220,0.5,18.867,50,0.329396,-5.40282e-14,0011171700,10.65,0,,,
62782,30599,2005/09/22 19:00:00,42.6170,-9.8130,0.5,18.359,50,0.212874,0.283016,0011171700,10.71,0,,,
62782,30599,2005/09/22 20:00:00,42.6150,-9.8120,0.5,17.695,50,-0.0837323,0.0309221,0011171700,10.59,0,,,
62782,30599,2005/09/22 21:01:00,42.6080,-9.8110,0.5,17.422,50,-0.288238,0.0304152,0011171700,10.71,0,,,
62782,30599,2005/09/22 22:00:00,42.5990,-9.8100,0.5,17.305,50,-0.383104,0.0314462,0011171700,10.71,0,,,
62782,30599,2005/09/22 23:01:00,42.5870,-9.8120,0.5,17.422,50,-0.493974,-0.0608303,0011171700,10.71,0,,,
62782,30599,2005/09/23 00:01:00,42.5800,-9.8230,0.5,17.578,50,-0.292909,-0.340143,0011171700,10.71,0,,,